CW9516 Weather Reports


time (UTC)temp
C
wind
direction
speed
KPH
gust
KPH
rain 1hr
cm
rain 24hr
cm
rain mn
cm
humidity
%
barometer
mb
20260906221104 33 151 0.0 3.2 0.00 0.00 0.00 33 1015.2
20260906220603 33 138 1.6 4.8 0.00 0.00 0.00 33 1015.2
20260906220104 33 161 0.0 4.8 0.00 0.00 0.00 33 1015.2
20260906215104 33 96 0.0 3.2 0.00 0.00 0.00 33 1015.5
20260906214603 33 96 1.6 9.7 0.00 0.00 0.00 33 1015.5
20260906214104 33 133 1.6 11.3 0.00 0.00 0.00 33 1015.5
20260906213604 33 38 1.6 4.8 0.00 0.00 0.00 35 1015.7
20260906213104 33 27 1.6 4.8 0.00 0.00 0.00 33 1015.6
20260906212104 33 179 0.0 8.0 0.00 0.00 0.00 34 1015.7
20260906211604 33 19 3.2 14.5 0.00 0.00 0.00 34 1015.7
20260906211103 33 213 0.0 3.2 0.00 0.00 0.00 34 1016.0
20260906210104 32 153 0.0 4.8 0.00 0.00 0.00 34 1016.0
20260906205604 32 139 0.0 4.8 0.00 0.00 0.00 35 1016.3
20260906205104 32 111 3.2 12.9 0.00 0.00 0.00 34 1016.2
20260906204604 32 326 1.6 4.8 0.00 0.00 0.00 35 1016.4
20260906204104 32 64 1.6 4.8 0.00 0.00 0.00 35 1016.5
20260906203604 31 54 1.6 4.8 0.00 0.00 0.00 37 1016.5
20260906203104 31 57 0.0 1.6 0.00 0.00 0.00 37 1016.3
20260906202603 31 23 1.6 4.8 0.00 0.00 0.00 36 1016.4
20260906202104 31 49 1.6 4.8 0.00 0.00 0.00 38 1016.6
20260906201603 31 77 1.6 8.0 0.00 0.00 0.00 37 1016.7
20260906201103 31 185 0.0 4.8 0.00 0.00 0.00 38 1016.7
20260906200604 31 90 0.0 4.8 0.00 0.00 0.00 38 1017.0
20260906200104 31 2 1.6 4.8 0.00 0.00 0.00 38 1017.5
20260906195603 30 29 1.6 8.0 0.00 0.00 0.00 39 1017.5
20260906195103 30 92 1.6 4.8 0.00 0.00 0.00 39 1017.5
20260906194603 30 103 1.6 4.8 0.00 0.00 0.00 40 1017.5
20260906194103 30 74 0.0 4.8 0.00 0.00 0.00 39 1017.5
20260906193104 30 51 1.6 4.8 0.00 0.00 0.00 41 1017.7
20260906192104 30 49 1.6 4.8 0.00 0.00 0.00 42 1017.9
20260906191604 30 86 0.0 4.8 0.00 0.00 0.00 41 1018.0
20260906190603 30 131 0.0 3.2 0.00 0.00 0.00 42 1018.2
20260906190104 29 62 1.6 8.0 0.00 0.00 0.00 42 1018.4
20260906185603 29 337 1.6 4.8 0.00 0.00 0.00 40 1018.2
20260906185104 29 171 1.6 8.0 0.00 0.00 0.00 41 1018.3
20260906184103 28 67 0.0 0.0 0.00 0.00 0.00 43 1018.5
20260906183604 28 67 0.0 4.8 0.00 0.00 0.00 43 1018.9
20260906183104 28 69 0.0 4.8 0.00 0.00 0.00 43 1018.7
20260906182604 28 71 0.0 1.6 0.00 0.00 0.00 45 1018.9
20260906182104 28 68 0.0 4.8 0.00 0.00 0.00 46 1019.0
20260906181603 28 78 0.0 1.6 0.00 0.00 0.00 46 1019.0
20260906181104 27 78 0.0 4.8 0.00 0.00 0.00 46 1019.0
20260906180603 27 0 0.0 4.8 0.00 0.00 0.00 46 1019.0
20260906180103 27 346 1.6 4.8 0.00 0.00 0.00 44 1019.2
20260906175604 27 335 0.0 1.6 0.00 0.00 0.00 46 1019.4
20260906174604 27 267 1.6 8.0 0.00 0.00 0.00 48 1019.4
20260906174103 27 24 1.6 8.0 0.00 0.00 0.00 48 1019.4
20260906173103 26 322 1.6 4.8 0.00 0.00 0.00 50 1019.7
20260906172104 26 50 0.0 0.0 0.00 0.00 0.00 51 1019.9
20260906171603 26 36 0.0 3.2 0.00 0.00 0.00 52 1020.0
20260906171104 26 27 0.0 3.2 0.00 0.00 0.00 53 1020.3
20260906170604 26 336 1.6 4.8 0.00 0.00 0.00 54 1020.3
20260906170106 26 22 0.0 4.8 0.00 0.00 0.00 54 1020.5
20260906165603 25 23 0.0 3.2 0.00 0.00 0.00 54 1020.4
20260906165104 25 358 0.0 1.6 0.00 0.00 0.00 55 1020.4
20260906164603 25 327 1.6 3.2 0.00 0.00 0.00 55 1020.4
20260906164104 25 329 0.0 1.6 0.00 0.00 0.00 57 1020.6
20260906163604 25 329 0.0 8.0 0.00 0.00 0.00 56 1020.4
20260906163103 25 150 0.0 1.6 0.00 0.00 0.00 58 1020.5
20260906162104 24 67 1.6 4.8 0.00 0.00 0.00 59 1020.4
20260906161604 24 84 0.0 1.6 0.00 0.00 0.00 60 1020.4
20260906160604 23 50 0.0 4.8 0.00 0.00 0.00 60 1020.4
20260906160104 23 333 0.0 1.6 0.00 0.00 0.00 62 1020.5
20260906155103 23 65 0.0 4.8 0.00 0.00 0.00 62 1020.4
20260906154603 23 321 0.0 0.0 0.00 0.00 0.00 65 1020.4
20260906154104 23 321 1.6 4.8 0.00 0.00 0.00 65 1020.5
20260906153604 22 321 0.0 1.6 0.00 0.00 0.00 66 1020.5
20260906153104 22 321 0.0 1.6 0.00 0.00 0.00 67 1020.6
20260906152604 22 321 0.0 3.2 0.00 0.00 0.00 68 1020.7
20260906152104 21 280 0.0 4.8 0.00 0.00 0.00 71 1020.7
20260906151104 21 359 1.6 4.8 0.00 0.00 0.00 71 1020.7
20260906150604 21 225 0.0 4.8 0.00 0.00 0.00 72 1020.7
20260906145604 21 335 0.0 1.6 0.00 0.00 0.00 73 1020.7
20260906145104 21 335 0.0 3.2 0.00 0.00 0.00 75 1020.6
20260906143603 20 235 0.0 0.0 0.00 0.00 0.00 78 1020.7
20260906143104 20 235 1.6 4.8 0.00 0.00 0.00 79 1020.8
20260906142603 19 249 0.0 4.8 0.00 0.00 0.00 80 1020.8
20260906142103 19 218 0.0 8.0 0.00 0.00 0.00 81 1020.7
20260906141604 18 173 1.6 3.2 0.00 0.00 0.00 81 1020.6
20260906141103 18 173 1.6 8.0 0.00 0.00 0.00 83 1020.7
20260906140604 18 130 0.0 1.6 0.00 0.00 0.00 84 1020.7
20260906135104 17 130 0.0 0.0 0.00 0.00 0.00 87 1020.5
20260906134104 16 76 0.0 0.0 0.00 0.00 0.00 88 1020.5
20260906133604 16 76 0.0 0.0 0.00 0.00 0.00 88 1020.5
20260906132604 16 76 0.0 0.0 0.00 0.00 0.00 88 1020.5
20260906132104 16 76 0.0 0.0 0.00 0.00 0.00 88 1020.4
20260906131604 16 76 0.0 0.0 0.00 0.00 0.00 88 1020.3
20260906131104 16 76 0.0 0.0 0.00 0.00 0.00 88 1020.3
20260906130104 16 76 0.0 0.0 0.00 0.00 0.00 87 1020.2
20260906125604 16 76 0.0 0.0 0.00 0.00 0.00 87 1020.0
20260906124603 16 76 0.0 0.0 0.00 0.00 0.00 86 1020.0
20260906124104 16 76 0.0 0.0 0.00 0.00 0.00 86 1020.0
20260906123604 16 76 0.0 0.0 0.00 0.00 0.00 86 1020.1
20260906123104 16 76 0.0 0.0 0.00 0.00 0.00 85 1020.0
20260906122604 16 76 0.0 0.0 0.00 0.00 0.00 85 1020.0
20260906122103 16 76 0.0 0.0 0.00 0.00 0.00 84 1020.2
20260906121604 16 76 0.0 0.0 0.00 0.00 0.00 84 1020.2
20260906121104 16 76 0.0 0.0 0.00 0.00 0.00 83 1020.1
20260906120603 16 76 0.0 0.0 0.00 0.00 0.00 83 1020.1
20260906115604 16 76 0.0 0.0 0.00 0.00 0.00 83 1020.2
20260906115104 16 76 0.0 0.0 0.00 0.00 0.00 82 1020.0
20260906114104 16 76 0.0 0.0 0.00 0.00 0.00 81 1020.0
20260906113104 16 76 0.0 0.0 0.00 0.00 0.00 80 1020.0
20260906112103 17 76 0.0 0.0 0.00 0.00 0.00 80 1019.9
20260906111604 17 76 0.0 0.0 0.00 0.00 0.00 79 1019.8
20260906111104 17 76 0.0 0.0 0.00 0.00 0.00 78 1019.9
20260906110603 17 76 0.0 0.0 0.00 0.00 0.00 77 1019.8
20260906110103 17 76 0.0 0.0 0.00 0.00 0.00 77 1019.9
20260906105604 17 76 0.0 0.0 0.00 0.00 0.00 76 1019.7
20260906104604 17 76 0.0 0.0 0.00 0.00 0.00 75 1019.5
20260906104103 17 76 0.0 0.0 0.00 0.00 0.00 75 1019.6
20260906103604 17 76 0.0 0.0 0.00 0.00 0.00 74 1019.5
20260906103103 18 76 0.0 0.0 0.00 0.00 0.00 74 1019.4
20260906102604 18 76 0.0 0.0 0.00 0.00 0.00 73 1019.4
20260906102104 18 76 0.0 0.0 0.00 0.00 0.00 73 1019.4
20260906101604 18 76 0.0 0.0 0.00 0.00 0.00 72 1019.3
20260906101103 18 76 0.0 1.6 0.00 0.00 0.00 71 1019.3
20260906100103 18 76 0.0 0.0 0.00 0.00 0.00 67 1019.4
20260906095604 18 76 0.0 0.0 0.00 0.00 0.00 66 1019.5
20260906095103 18 76 0.0 0.0 0.00 0.00 0.00 66 1019.5
20260906094604 18 76 0.0 0.0 0.00 0.00 0.00 66 1019.5
20260906093603 18 76 0.0 0.0 0.00 0.00 0.00 64 1019.4
20260906093104 18 76 0.0 0.0 0.00 0.00 0.00 63 1019.5
20260906092604 18 76 0.0 0.0 0.00 0.00 0.00 62 1019.5
20260906092104 18 76 0.0 0.0 0.00 0.00 0.00 62 1019.4
20260906091603 19 76 0.0 0.0 0.00 0.00 0.00 62 1019.4
20260906091104 19 76 0.0 0.0 0.00 0.00 0.00 61 1019.3
20260906090604 19 76 0.0 0.0 0.00 0.00 0.00 61 1019.3
20260906085603 19 76 0.0 0.0 0.00 0.00 0.00 62 1019.2
20260906084103 19 76 0.0 0.0 0.00 0.00 0.00 63 1019.1
20260906083604 19 76 0.0 0.0 0.00 0.00 0.00 62 1019.2
20260906083104 19 76 0.0 0.0 0.00 0.00 0.00 62 1019.2
20260906082604 19 76 0.0 0.0 0.00 0.00 0.00 62 1019.2
20260906082103 19 76 0.0 0.0 0.00 0.00 0.00 61 1019.3
20260906081603 19 76 0.0 0.0 0.00 0.00 0.00 60 1019.4
20260906081104 20 76 0.0 0.0 0.00 0.00 0.00 61 1019.3
20260906080603 20 76 0.0 0.0 0.00 0.00 0.00 60 1019.3
20260906080104 20 76 0.0 0.0 0.00 0.00 0.00 60 1019.3
20260906075103 20 76 0.0 0.0 0.00 0.00 0.00 59 1019.2
20260906074604 20 76 0.0 0.0 0.00 0.00 0.00 58 1019.2
20260906073604 20 76 0.0 0.0 0.00 0.00 0.00 58 1019.0
20260906072604 20 76 0.0 0.0 0.00 0.00 0.00 56 1018.8
20260906072103 20 76 0.0 0.0 0.00 0.00 0.00 56 1018.8
20260906071103 20 76 0.0 0.0 0.00 0.00 0.00 55 1018.7
20260906070104 21 76 0.0 0.0 0.00 0.00 0.00 55 1018.7
20260906065604 21 76 0.0 0.0 0.00 0.00 0.00 56 1018.6
20260906064104 21 76 0.0 0.0 0.00 0.00 0.00 53 1018.7
20260906063604 21 76 0.0 0.0 0.00 0.00 0.00 52 1018.6
20260906063103 21 76 0.0 0.0 0.00 0.00 0.00 52 1018.7
20260906062604 21 76 0.0 0.0 0.00 0.00 0.00 50 1018.7
20260906062103 21 76 0.0 0.0 0.00 0.00 0.00 50 1018.8
20260906061603 21 76 0.0 0.0 0.00 0.00 0.00 50 1019.2
20260906061104 22 76 0.0 0.0 0.00 0.00 0.00 50 1019.2
20260906060604 22 76 0.0 0.0 0.00 0.00 0.00 50 1019.2
20260906060103 22 76 0.0 0.0 0.00 0.00 0.00 49 1019.4
20260906055603 22 76 0.0 0.0 0.00 0.00 0.00 48 1019.3
20260906055103 22 76 0.0 0.0 0.00 0.00 0.00 48 1019.2
20260906054604 22 76 0.0 0.0 0.00 0.00 0.00 48 1019.2
20260906054104 22 76 0.0 0.0 0.00 0.00 0.00 48 1019.2
20260906053604 22 76 0.0 0.0 0.00 0.00 0.00 47 1019.2
20260906053103 22 76 0.0 0.0 0.00 0.00 0.00 47 1019.4
20260906052603 22 76 0.0 0.0 0.00 0.00 0.00 47 1019.4
20260906052104 22 76 0.0 0.0 0.00 0.00 0.00 48 1019.5
20260906051604 22 76 0.0 0.0 0.00 0.00 0.00 48 1019.5
20260906051104 22 76 0.0 0.0 0.00 0.00 0.00 47 1019.5
20260906050603 23 76 0.0 0.0 0.00 0.00 0.00 47 1019.4
20260906045603 23 76 0.0 0.0 0.00 0.00 0.00 46 1019.5
20260906045104 23 76 0.0 0.0 0.00 0.00 0.00 46 1019.6
20260906044103 23 76 0.0 0.0 0.00 0.00 0.00 46 1019.9
20260906043603 23 76 0.0 0.0 0.00 0.00 0.00 44 1019.6
20260906043104 23 76 0.0 0.0 0.00 0.00 0.00 45 1019.4
20260906042604 22 76 0.0 4.8 0.00 0.00 0.00 44 1019.5
20260906041603 22 341 0.0 0.0 0.00 0.00 0.00 46 1019.4
20260906041104 22 341 0.0 0.0 0.00 0.00 0.00 47 1019.1
20260906040604 22 341 0.0 0.0 0.00 0.00 0.00 47 1018.8
20260906040104 22 341 0.0 0.0 0.00 0.00 0.00 47 1018.7
20260906035603 22 341 0.0 0.0 0.00 0.00 0.00 46 1018.4
20260906034604 22 341 0.0 0.0 0.00 0.00 0.00 46 1018.4
20260906034104 23 341 0.0 0.0 0.00 0.00 0.00 47 1018.5
20260906033604 23 341 0.0 0.0 0.00 0.00 0.00 46 1018.6
20260906033103 23 341 0.0 0.0 0.00 0.00 0.00 46 1018.5
20260906032604 23 341 0.0 0.0 0.00 0.00 0.00 45 1018.5
20260906032104 23 341 0.0 0.0 0.00 0.00 0.00 45 1018.6
20260906031604 24 341 0.0 0.0 0.00 0.00 0.00 43 1018.4
20260906031104 24 341 0.0 0.0 0.00 0.00 0.00 41 1018.3
20260906030603 25 341 0.0 0.0 0.00 0.00 0.00 41 1017.9
20260906030104 25 341 0.0 0.0 0.00 0.00 0.00 40 1017.9
20260906025604 25 341 0.0 0.0 0.00 0.00 0.00 40 1017.8
20260906024604 26 341 0.0 0.0 0.00 0.00 0.00 39 1017.4
20260906024104 26 341 0.0 0.0 0.00 0.00 0.00 38 1017.4
20260906023103 26 341 0.0 0.0 0.00 0.00 0.00 36 1017.5
20260906022604 27 341 0.0 0.0 0.00 0.00 0.00 36 1017.4
20260906022104 27 341 0.0 0.0 0.00 0.00 0.00 35 1017.2
20260906021604 27 341 0.0 0.0 0.00 0.00 0.00 35 1017.1
20260906021103 27 341 0.0 0.0 0.00 0.00 0.00 34 1017.4
20260906020603 27 341 1.6 4.8 0.00 0.00 0.00 34 1017.3
20260906020104 27 355 0.0 1.6 0.00 0.00 0.00 33 1017.3
20260906015604 28 355 0.0 0.0 0.00 0.00 0.00 33 1017.0
20260906015104 28 355 0.0 1.6 0.00 0.00 0.00 33 1016.9
20260906014103 28 19 0.0 4.8 0.00 0.00 0.00 32 1016.8
20260906013603 28 24 1.6 4.8 0.00 0.00 0.00 32 1016.5
20260906013104 28 329 1.6 8.0 0.00 0.00 0.00 31 1016.6
20260906012604 28 318 1.6 4.8 0.00 0.00 0.00 31 1016.4
20260906012103 28 344 3.2 4.8 0.00 0.00 0.00 31 1016.4
20260906011604 28 339 0.0 4.8 0.00 0.00 0.00 33 1016.4
20260906011104 28 338 0.0 0.0 0.00 0.00 0.00 35 1016.5
20260906010603 28 338 0.0 0.0 0.00 0.00 0.00 36 1016.5
20260906005604 29 338 0.0 0.0 0.00 0.00 0.00 36 1016.4
20260906005104 29 338 0.0 0.0 0.00 0.00 0.00 34 1016.5
20260906004603 29 338 0.0 0.0 0.00 0.00 0.00 33 1016.5
20260906004104 30 338 0.0 0.0 0.00 0.00 0.00 32 1016.6
20260906003604 30 338 0.0 0.0 0.00 0.00 0.00 31 1016.5
20260906003103 31 338 0.0 0.0 0.00 0.00 0.00 31 1016.5
20260906002604 31 338 0.0 0.0 0.00 0.00 0.00 30 1016.5
20260906001604 32 338 0.0 0.0 0.00 0.00 0.00 28 1016.5
20260906001103 32 338 0.0 0.0 0.00 0.00 0.00 27 1016.5
20260906000104 33 338 0.0 0.0 0.00 0.00 0.00 26 1016.3
20260905235604 33 338 0.0 1.6 0.00 0.00 0.00 25 1016.3
20260905235104 33 338 0.0 1.6 0.00 0.00 0.00 25 1016.3
20260905234604 33 339 1.6 4.8 0.00 0.00 0.00 24 1016.3
20260905234104 34 103 0.0 4.8 0.00 0.00 0.00 24 1016.3
20260905233604 34 11 0.0 0.0 0.00 0.00 0.00 24 1016.3
20260905232104 33 10 0.0 1.6 0.00 0.00 0.00 24 1016.1
20260905231603 34 10 0.0 4.8 0.00 0.00 0.00 24 1016.2
20260905231104 34 55 0.0 4.8 0.00 0.00 0.00 24 1016.2
20260905230604 34 59 0.0 3.2 0.00 0.00 0.00 24 1016.3
20260905230104 33 16 0.0 4.8 0.00 0.00 0.00 24 1016.3
20260905225604 33 336 1.6 4.8 0.00 0.00 0.00 25 1016.3
20260905225104 33 336 0.0 3.2 0.00 0.00 0.00 25 1016.2
20260905224604 33 336 0.0 4.8 0.00 0.00 0.00 25 1016.1
20260905224104 33 169 1.6 4.8 0.00 0.00 0.00 24 1016.1
20260905223103 33 326 3.2 14.5 0.00 0.00 0.00 24 1016.1
20260905222603 33 355 1.6 4.8 0.00 0.00 0.00 25 1016.1
20260905222103 33 355 3.2 8.0 0.00 0.00 0.00 25 1016.3
20260905221604 33 346 0.0 1.6 0.00 0.00 0.00 26 1016.3